SBIRS GEO-1 (USA 230)

Last updated on Sun Jan 18 2026 00:02:46 GMT+0000 (Coordinated Universal Time)

1 37481U 11019A 26017.59423632 .00000113 00000+0 00000+0 0 9998 2 37481 4.2052 53.0496 0002337 245.2643 84.4102 1.00271969 53884
UTC large
Height (km)
Speed (km/s)
/
Latitude / Longitude
Inclination (degrees)
Orbital Period (minutes)
Azimuth
Elevation
Range (km)
Doppler Factor

Next 0 passes for location: London (51.5072 / 0.1276)

Sorry there are no passes over London.